Погода Сосуново

Погода Сосуново : погода сейчас, прогноз погоды и архив. Всё, что Вы хотите узнать о погоде Сосуново!

Хотите узнать прогноз погоды Сосуново? Тогда Вам сюда: Погода Сосуново

Поиск расширенной информации на нашем сайте:

Другие новости

Новости СМИ2

Главная страница сайта

Новости сайта

03.07.2017

Напоминаем, что на нашем специализированном сайте Метеоцентр.Азия вы можете получить высокодетализированные автоматические прогнозы погоды по пунктам России, СНГ и мира в авиационном формате (включающие направление и скорость ветра, видимость, явления погоды, количество и форму облачности, нижнюю и верхнюю границу облачности).


Погода Сосуново - сегодня

Время (UTC), дата Ветер
(°,м/с) 
Видим.   Явления Облачность Т
(°С)
Тd
(°С)
f(%) Тe
(°С)
Pmin
(гПа)
dP
(гПа)
Po
(мм)
O2
(г/м3)
Тmin Tmax R s Состояние
почвы
15 14.04.18 230 (ЮЗ) 4000 м  дождь  10/10 200 м 
[Frnb|Ns]
+1.2 -0 92 1010  -1.1  757  304           
18 14.04.18 тихо ()   4000 м  дождь  10/10 200 м 
[Frnb|Ns]
+0.9 -0.1 93 +1  1008.9  -1  756  304           
00 15.04.18 030 (СВ) 7-11{11}  4000 м  слаб. снег{дождь}  10/3 200 м средняя 
[Frnb|As op]
+0.4 -0.6 93 -3  1007.5  -0.5  755  304           
09 15.04.18 040 (СВ) 8-12{14}  4000 м  слаб. снег  10/5 300 м средняя 
[Frnb|As op]
-0.4 -1.3 94 -5  1007.4  1.2  755  305    +0.5  10     
15 15.04.18 300 (СЗ) 10 км  {снег}  10/0 средняя 
[As op]
-0.4 -1.8 90 -1  1009.4  757  306           
18 15.04.18 220 (ЮЗ) 10 км    6/6 600 м 
[Sc]
-1.1 -2.1 93 -4  1008.5  -0.9  756  306           
00 16.04.18 210 (ЮЗ) 20000 м    3/3 1000 м 
[Cu hum]
+6 +0.3 67 +6  1009.6  0.6  757  298           
03 16.04.18 190 (Ю) 20000 м    5/5 600 м 
[Cu hum]
+7.2 -0.7 57 +5  1009.1  -0.5  757  297           
06 16.04.18 200 (Ю) 20000 м  {ливн. осадки}  8/8 600 м кучево-дожд. 
[Cb cap]
+6.4 -0.6 61 +6  1008.1  -1  756  298           
09 16.04.18 270 (З) 20000 м    ясно 
+7.4 -2.8 48 +7  1008.9  0.8  756  297    +12.7  0.0     
12 16.04.18 250 (З) 20000 м    ясно 
+0.9 -3.1 75 -1  1012  3.1  759  305           
15 16.04.18 230 (ЮЗ) 20000 м    ясно 
+0.4 -3.2 77 -3  1013.1  1.1  760  306           
18 16.04.18 230 (ЮЗ) 20000 м    ясно 
-0.4 -3.7 78 -3  1013.6  0.5  760  307           
12 17.04.18 220 (ЮЗ) 6{10}  20000 м    ясно 
+2.9 -0.3 79 1009.8  0.5  757  302           
15 17.04.18 220 (ЮЗ) 3{12}  20000 м    ясно 
+2 -0.9 81 +1  1009.7  0.5  757  303           
18 17.04.18 230 (ЮЗ) 20000 м    ясно 
+0.6 -1.6 85 -2  1009  -0.7  756  304           
00 18.04.18 180 (Ю) 20000 м    5/5 600 м 
[Cu hum]
+6.2 -0.3 63 +5  1008.3  -0.5  756  298           
03 18.04.18 260 (З) 20000 м    8/8 600 м 
[Cu hum]
+3.4 +0.2 80 +3  1007.7  -0.6  755  301           
06 18.04.18 270 (З) 20000 м    5/5 600 м 
[Cu hum]
+3.2 +0.2 81 +3  1006.5  -1.2  755  300           
12 18.04.18 270 (З) 1{12}  20000 м    4/4 1000 м 
[Sc]
-0.1 -1.2 92 +1  1007.2  1.2  755  305           
15 18.04.18 010 (С) 4-10{14}  20000 м    ясно 
+2.2 -0.6 82 1008.7  1.5  756  302           
18 18.04.18 060 (СВ) 8-11{12}  20000 м    ясно 
+0.3 -0.6 94 -4  1009.8  1.1  757  305           
21 18.04.18 050 (СВ) 8-10{11}  0500 м  туман  ?/?  
+0.3 -0.5 94 -4  1011.2  1.5  758  305  -0.5      мокрый или
старый снег
10-40% 
03 19.04.18 050 (СВ) 20000 м    8/0 верхняя 
[Cs]
+2.7 +0.5 85 -1  1012  -0.3  759  303           
06 19.04.18 060 (СВ) 20000 м    10/10 600 м 
[Sc]
+2.8 +0.3 84 1011.6  -0.4  758  302           
Время (UTC), дата Ветер
(°,м/с) 
Видим.   Явления Облачность Т
(°С)
Тd
(°С)
f(%) Тe
(°С)
Pmin
(гПа)
dP
(гПа)
Po
(мм)
O2
(г/м3)
Тmin Tmax R s Состояние
почвы

Для получения пояснительной информации подведите курсор к названию столбца.

ПОГОДА Сосуново - архив

Всё, что Вы хотите узнать о погоде Сосуново - удобно и подробно!

Выберите нужную дату (начиная с 1 января 2015* года) и нажмите кнопку "Найти".
Будут отображены архивные сводки погоды по пункту Сосуново, начиная с указанной даты.


Отображать данные в формате CSV (для использования в таблицах Excel)


Внимание! Наш архив погоды предназначен исключительно для личного некоммерческого использования в познавательных целях. Если Вам необходимы официальные справки о состоянии погоды (для производственных, юридических, коммерческих и т.п. целей), обращайтесь в органы Росгидромета.

*Примечание: данная дата относится к архиву по метеостанциям СССР (Россия, СНГ, Балтия).
Архив по метеостанциям Зарубежной Европы и Азии (кроме Китая) хранится 10 дней, по другим регионам земного шара (Китай, Африка, Америка, Австралия, Океания) - 1 день.

Сосуново - район местоположения метеостанции


Название, широта, долгота, высота метеостанции:
Сосуново 46.5°ш. 138.3°д. 4 м над ур. моря [Российская Федерация]

Дополнительная информация

В oтличие oт бoльшинства пoгoдных сайтoв мы публикуем пoдрoбную метеoинфoрмацию в детальнoм прoфессиoнальнoм фoрмате.

Характеристики температуры и влажнoсти вoздуха измеряются на высoте 2 м в тени вдали oт зданий и деревьев.
Скoрoсть ветра измеряется на высoте 10 м (на урoвне рoста челoвека скoрoсть ветра ниже в 1.5-2 раза). Если метеoстанция нахoдится в гoрoде или в лесу, тo скoрoсть ветра занижена на 2-4 м/с пo сравнению с oткрытым местoм. Скoрoсть ветра над акватoриями крупных рек и oзёр, а также на вершинах хoлмoв на 2-5 м/с выше, чем в oбычных услoвиях.
Атмoсфернoе давление в разных тoчках местнoсти мoжет значительнo oтличаться oт давления на метеoстанции, в зависимoсти oт услoвий рельефа (при пoдъёме на 10 м давление пoнижается примернo на 1 мм рт.ст.).